Tracking 25710 objects as of 7-Jul-2022
HD Live streaming from Space Station
objects crossing your sky now

FENGYUN 1C DEB

Track FENGYUN 1C DEB now!
10-day predictions


NORAD ID: 29803
Int'l Code: 1999-025CV
Perigee: 700.9 km
Apogee: 783.8 km
Inclination: 99.0 °
Period: 99.5 minutes
Semi major axis: 7113 km
RCS: 0.028 m2 (small)
Launch date: May 10, 1999
Source: People's Republic of China (PRC)
Launch site: Taiyaun Space Center, China (TSC)

Note: This is SATELLITE DEBRIS
aabbcc
Your satellite tracking list
Your tracking list is empty




NASA's NSSDC Master Catalog

Two Line Element Set (TLE):
1 29803U 99025CV  22187.51102580  .00006023  00000-0  16314-2 0  9997
2 29803  98.9838  29.1127 0058299   2.2874 357.8572 14.47074643804488
Source of the keplerian elements: AFSPC